H1 CPF 2 NER 2021 5 21 9 141 01 glonass132 H2 1401201 9132 39620 2021 5 21 0 0 0 2021 5 24 23 45 0 900 1 1 0 0 0 1 H9 10 0 59355 0.00000 0 19249675.011 -16705664.151 -1595368.411 10 0 59355 900.00000 0 18815278.186 -16582931.915 -4803982.562 10 0 59355 1800.00000 0 18134414.083 -16136723.767 -7919570.854 10 0 59355 2700.00000 0 17261249.242 -15344860.505 -10881767.052 10 0 59355 3600.00000 0 16254927.288 -14197818.131 -13633138.329 10 0 59355 4500.00000 0 15176976.948 -12699364.205 -16120293.594 10 0 59355 5400.00000 0 14088635.398 -10866649.161 -18294916.743 10 0 59355 6300.00000 0 13048198.758 -8729746.442 -20114705.131 10 0 59355 7200.00000 0 12108510.671 -6330658.442 -21544195.078 10 0 59355 8100.00000 0 11314694.363 -3721827.249 -22555458.369 10 0 59355 9000.00000 0 10702223.623 -964209.771 -23128655.875 10 0 59355 9900.00000 0 10295414.384 1875004.760 -23252436.925 10 0 59355 10800.00000 0 10106401.109 4724941.899 -22924175.851 10 0 59355 11700.00000 0 10134642.218 7513749.249 -22150039.974 10 0 59355 12600.00000 0 10366976.644 10171352.161 -20944886.433 10 0 59355 13500.00000 0 10778230.462 12632143.604 -19331988.501 10 0 59355 14400.00000 0 11332349.212 14837496.145 -17342595.339 10 0 59355 15300.00000 0 11984009.070 16737990.716 -15015332.578 10 0 59355 16200.00000 0 12680639.266 18295268.429 -12395454.536 10 0 59355 17100.00000 0 13364770.255 19483427.210 -9533962.067 10 0 59355 18000.00000 0 13976607.667 20289904.039 -6486603.335 10 0 59355 18900.00000 0 14456721.981 20715805.493 -3312777.466 10 0 59355 19800.00000 0 14748738.445 20775672.845 -74363.423 10 0 59355 20700.00000 0 14801911.527 20496692.272 3165501.557 10 0 59355 21600.00000 0 14573472.988 19917384.721 6343668.539 10 0 59355 22500.00000 0 14030652.440 19085832.376 9398222.416 10 0 59355 23400.00000 0 13152283.526 18057518.585 12269700.398 10 0 59355 24300.00000 0 11929926.856 16892874.516 14902258.356 10 0 59355 25200.00000 0 10368461.791 15654638.030 17244761.388 10 0 59355 26100.00000 0 8486122.150 14405137.838 19251776.862 10 0 59355 27000.00000 0 6313974.641 13203618.439 20884450.815 10 0 59355 27900.00000 0 3894862.401 12103718.948 22111251.355 10 0 59355 28800.00000 0 1281858.549 11151211.584 22908565.699 10 0 59355 29700.00000 0 -1463705.195 10382093.931 23261140.786 10 0 59355 30600.00000 0 -4274552.492 9821113.574 23162360.517 10 0 59355 31500.00000 0 -7080022.690 9480785.172 22614355.906 10 0 59355 32400.00000 0 -9808771.723 9360939.144 21627947.475 10 0 59355 33300.00000 0 -12391502.515 9448818.899 20222422.246 10 0 59355 34200.00000 0 -14763612.910 9719720.773 18425150.498 10 0 59355 35100.00000 0 -16867653.019 10138148.463 16271050.166 10 0 59355 36000.00000 0 -18655491.889 10659432.596 13801909.319 10 0 59355 36900.00000 0 -20090105.347 11231747.039 11065579.557 10 0 59355 37800.00000 0 -21146912.555 11798437.275 8115055.410 10 0 59355 38700.00000 0 -21814607.265 12300563.361 5007456.745 10 0 59355 39600.00000 0 -22095450.378 12679551.123 1802933.096 10 0 59355 40500.00000 0 -22005012.577 12879840.730 -1436489.808 10 0 59355 41400.00000 0 -21571378.321 12851421.738 -4648099.897 10 0 59355 42300.00000 0 -20833844.655 12552148.294 -7769702.692 10 0 59355 43200.00000 0 -19841169.148 11949737.046 -10740816.799 10 0 59355 44100.00000 0 -18649439.893 11023363.294 -13503838.461 10 0 59355 45000.00000 0 -17319656.206 9764787.333 -16005153.080 10 0 59355 45900.00000 0 -15915120.737 8178962.276 -18196172.638 10 0 59355 46800.00000 0 -14498751.547 6284095.886 -20034279.233 10 0 59355 47700.00000 0 -13130426.318 4111161.583 -21483656.460 10 0 59355 48600.00000 0 -11864469.567 1702876.496 -22515992.516 10 0 59355 49500.00000 0 -10747388.094 -887813.444 -23111041.047 10 0 59355 50400.00000 0 -9815949.799 -3599680.668 -23257028.236 10 0 59355 51300.00000 0 -9095686.924 -6365516.582 -22950897.422 10 0 59355 52200.00000 0 -8599887.245 -9114691.731 -22198385.397 10 0 59355 53100.00000 0 -8329116.566 -11775870.172 -21013927.616 10 0 59355 54000.00000 0 -8271293.528 -14279765.845 -19420392.818 10 0 59355 54900.00000 0 -8402314.583 -16561826.255 -17448650.825 10 0 59355 55800.00000 0 -8687203.489 -18564731.142 -15136980.786 10 0 59355 56700.00000 0 -9081737.246 -20240601.090 -12530330.428 10 0 59355 57600.00000 0 -9534479.704 -21552822.793 -9679440.218 10 0 59355 58500.00000 0 -9989136.300 -22477413.525 -6639849.519 10 0 59355 59400.00000 0 -10387129.143 -23003866.901 -3470804.574 10 0 59355 60300.00000 0 -10670281.869 -23135444.034 -234090.538 10 0 59355 61200.00000 0 -10783498.673 -22888897.995 3007188.180 10 0 59355 62100.00000 0 -10677322.010 -22293643.968 6189853.873 10 0 59355 63000.00000 0 -10310258.708 -21390411.317 9251901.761 10 0 59355 63900.00000 0 -9650774.359 -20229436.127 12133720.426 10 0 59355 64800.00000 0 -8678870.341 -18868272.386 14779261.324 10 0 59355 65700.00000 0 -7387176.011 -17369316.009 17137133.630 10 0 59355 66600.00000 0 -5781509.733 -15797147.777 19161602.572 10 0 59355 67500.00000 0 -3880885.136 -14215808.347 20813471.990 10 0 59355 68400.00000 0 -1716962.740 -12686120.587 22060834.629 10 0 59355 69300.00000 0 667029.556 -11263171.777 22879676.650 10 0 59355 70200.00000 0 3217861.461 -9994060.579 23254326.132 10 0 59355 71100.00000 0 5874285.162 -8916001.881 23177738.479 10 0 59355 72000.00000 0 8569357.296 -8054867.085 22651614.824 10 0 59355 72900.00000 0 11233001.784 -7424218.756 21686352.665 10 0 59355 73800.00000 0 13794707.840 -7024877.730 20300830.887 10 0 59355 74700.00000 0 16186252.134 -6845038.690 18522034.242 10 0 59355 75600.00000 0 18344333.571 -6860927.377 16384525.014 10 0 59355 76500.00000 0 20213012.938 -7037970.440 13929772.165 10 0 59355 77400.00000 0 21745857.665 -7332427.849 11205350.737 10 0 59355 78300.00000 0 22907704.252 -7693418.819 8264026.424 10 0 59355 79200.00000 0 23675966.482 -8065256.044 5162742.279 10 0 59355 80100.00000 0 24041436.074 -8389990.394 1961526.373 10 0 59355 81000.00000 0 24008543.319 -8610059.438 -1277659.375 10 0 59355 81900.00000 0 23595067.316 -8670928.839 -4492107.831 10 0 59355 82800.00000 0 22831308.024 -8523615.806 -7619570.455 10 0 59355 83700.00000 0 21758754.588 -8126988.524 -10599453.775 10 0 59355 84600.00000 0 20428305.109 -7449744.526 -13373986.029 10 0 59355 85500.00000 0 18898111.682 -6471984.149 -15889331.808 10 0 59356 0.00000 0 17231140.014 -5186311.818 -18096633.582 10 0 59356 900.00000 0 15492544.917 -3598416.723 -19952960.428 10 0 59356 1800.00000 0 13746970.486 -1727107.851 -21422145.062 10 0 59356 2700.00000 0 12055887.852 396202.783 -22475493.658 10 0 59356 3600.00000 0 10475080.575 2728547.647 -23092353.879 10 0 59356 4500.00000 0 9052383.523 5216942.167 -23260529.636 10 0 59356 5400.00000 0 7825769.602 7800351.960 -22976533.757 10 0 59356 6300.00000 0 6821864.945 10412009.224 -22245672.563 10 0 59356 7200.00000 0 6054955.429 12981983.265 -21081959.443 10 0 59356 8100.00000 0 5526526.884 15439899.201 -19507857.758 10 0 59356 9000.00000 0 5225359.006 17717691.949 -17553856.701 10 0 59356 9900.00000 0 5128169.666 19752280.342 -15257887.181 10 0 59356 10800.00000 0 5200782.690 21488049.049 -12664588.144 10 0 59356 11700.00000 0 5399769.797 22879033.486 -9824437.064 10 0 59356 12600.00000 0 5674496.759 23890714.963 -6792761.527 10 0 59356 13500.00000 0 5969486.166 24501349.737 -3628651.607 10 0 59356 14400.00000 0 6226995.279 24702775.328 -393795.152 10 0 59356 15300.00000 0 6389697.905 24500659.803 2848739.850 10 0 59356 16200.00000 0 6403354.599 23914183.794 6035750.501 10 0 59356 17100.00000 0 6219355.985 22975169.380 9105145.791 10 0 59356 18000.00000 0 5797029.606 21726693.866 11997168.895 10 0 59356 18900.00000 0 5105611.120 20221248.499 14655569.775 10 0 59356 19800.00000 0 4125795.404 18518521.482 17028704.275 10 0 59356 20700.00000 0 2850801.508 16682900.363 19070537.704 10 0 59356 21600.00000 0 1286906.408 14780800.244 20741533.562 10 0 59356 22500.00000 0 -546574.673 12877930.927 22009410.703 10 0 59356 23400.00000 0 -2617860.081 11036618.001 22849755.317 10 0 59356 24300.00000 0 -4883801.206 9313289.656 23246477.298 10 0 59356 25200.00000 0 -7291463.275 7756233.298 23192103.771 10 0 59356 26100.00000 0 -9780121.216 6403714.106 22687905.731 10 0 59356 27000.00000 0 -12283587.577 5282532.000 21743856.874 10 0 59356 27900.00000 0 -14732776.160 4407074.861 20378426.638 10 0 59356 28800.00000 0 -17058395.521 3778905.168 18618212.399 10 0 59356 29700.00000 0 -19193661.593 3386894.984 16497418.430 10 0 59356 30600.00000 0 -21076918.096 3207901.647 14057191.791 10 0 59356 31500.00000 0 -22654057.195 3207954.352 11344827.803 10 0 59356 32400.00000 0 -23880641.232 3343900.808 8412859.927 10 0 59356 33300.00000 0 -24723638.548 3565444.283 5318050.874 10 0 59356 34200.00000 0 -25162702.103 3817485.347 2120303.712 10 0 59356 35100.00000 0 -25190938.409 4042670.009 -1118486.922 10 0 59356 36000.00000 0 -24815135.096 4184037.374 -4335622.156 10 0 59356 36900.00000 0 -24055437.648 4187655.747 -7468802.534 10 0 59356 37800.00000 0 -22944488.563 4005136.412 -10457325.434 10 0 59356 38700.00000 0 -21526064.286 3595919.245 -13243253.747 10 0 59356 39600.00000 0 -19853266.103 2929233.551 -15772533.627 10 0 59356 40500.00000 0 -17986339.624 1985650.817 -17996040.122 10 0 59356 41400.00000 0 -15990212.894 758162.741 -19870530.726 10 0 59356 42300.00000 0 -13931855.027 -747262.474 -21359488.466 10 0 59356 43200.00000 0 -11877564.724 -2511671.174 -22433838.129 10 0 59356 44100.00000 0 -9890301.207 -4503665.567 -23072521.487 10 0 59356 45000.00000 0 -8027168.583 -6680475.278 -23262919.765 10 0 59356 45900.00000 0 -6337158.521 -8989517.036 -23001114.386 10 0 59356 46800.00000 0 -4859245.641 -11370379.788 -22291979.864 10 0 59356 47700.00000 0 -3620915.649 -13757154.293 -21149105.790 10 0 59356 48600.00000 0 -2637188.312 -16081011.436 -19594548.082 10 0 59356 49500.00000 0 -1910176.733 -18272922.423 -17658412.963 10 0 59356 50400.00000 0 -1429201.951 -20266407.267 -15378280.546 10 0 59356 51300.00000 0 -1171458.262 -22000196.198 -12798478.305 10 0 59356 52200.00000 0 -1103201.130 -23420691.618 -9969217.959 10 0 59356 53100.00000 0 -1181407.099 -24484126.099 -6945612.561 10 0 59356 54000.00000 0 -1355834.525 -25158324.536 -3786593.327 10 0 59356 54900.00000 0 -1571396.552 -25423995.231 -553748.225 10 0 59356 55800.00000 0 -1770743.990 -25275494.694 2689893.634 10 0 59356 56700.00000 0 -1896946.621 -24721033.675 5881106.466 10 0 59356 57600.00000 0 -1896157.144 -23782315.951 8957715.189 10 0 59356 58500.00000 0 -1720142.863 -22493625.872 11859819.574 10 0 59356 59400.00000 0 -1328576.178 -20900404.392 14530969.926 10 0 59356 60300.00000 0 -690985.647 -19057375.020 16919270.391 10 0 59356 61200.00000 0 211715.640 -17026300.197 18978387.787 10 0 59356 62100.00000 0 1386189.164 -14873463.823 20668446.433 10 0 59356 63000.00000 0 2826161.343 -12666986.602 21956792.197 10 0 59356 63900.00000 0 4512466.096 -10474087.325 22818611.903 10 0 59356 64800.00000 0 6413637.285 -8358404.531 23237397.588 10 0 59356 65700.00000 0 8487025.678 -6377489.631 23205248.162 10 0 59356 66600.00000 0 10680393.272 -4580574.785 22723004.310 10 0 59356 67500.00000 0 12933918.318 -3006706.594 21800215.522 10 0 59356 68400.00000 0 15182527.684 -1683321.079 20454941.185 10 0 59356 69300.00000 0 17358459.915 -625316.841 18713390.496 10 0 59356 70200.00000 0 19393953.188 165337.461 16609408.700 10 0 59356 71100.00000 0 21223947.469 699447.301 14183819.707 10 0 59356 72000.00000 0 22788689.567 999896.576 11483637.612 10 0 59356 72900.00000 0 24036133.976 1100442.674 8561161.842 10 0 59356 73800.00000 0 24924040.646 1044053.859 5472972.673 10 0 59356 74700.00000 0 25421683.202 880859.231 2278845.781 10 0 59356 75600.00000 0 25511097.071 665797.601 -959394.106 10 0 59356 76500.00000 0 25187815.749 456063.953 -4179059.187 10 0 59356 77400.00000 0 24461064.460 308460.661 -7317801.965 10 0 59356 78300.00000 0 23353402.730 276764.679 -10314813.522 10 0 59356 79200.00000 0 21899830.109 409221.413 -13111994.149 10 0 59356 80100.00000 0 20146391.411 746270.889 -15655074.125 10 0 59356 81000.00000 0 18148338.602 1318602.415 -17894663.375 10 0 59356 81900.00000 0 15967924.735 2145620.532 -19787210.024 10 0 59356 82800.00000 0 13671920.794 3234388.101 -21295849.284 10 0 59356 83700.00000 0 11328957.814 4579092.794 -22391126.246 10 0 59356 84600.00000 0 9006804.069 6161061.651 -23051578.277 10 0 59356 85500.00000 0 6769690.150 7949325.518 -23264165.141 10 0 59357 0.00000 0 4675792.942 9901712.324 -23024537.802 10 0 59357 900.00000 0 2774983.370 11966426.227 -22337139.498 10 0 59357 1800.00000 0 1106931.521 14084048.012 -21215136.209 10 0 59357 2700.00000 0 -300350.179 16189875.796 -19680176.098 10 0 59357 3600.00000 0 -1431466.032 18216508.537 -17761981.627 10 0 59357 4500.00000 0 -2284056.409 20096564.943 -15497780.825 10 0 59357 5400.00000 0 -2868660.221 21765423.667 -12931587.911 10 0 59357 6300.00000 0 -3208026.138 23163869.136 -10113346.600 10 0 59357 7200.00000 0 -3335901.995 24240530.676 -7097952.734 10 0 59357 8100.00000 0 -3295354.355 24954011.052 -3944175.630 10 0 59357 9000.00000 0 -3136690.585 25274613.405 -713500.045 10 0 59357 9900.00000 0 -2915073.101 25185592.615 2531087.283 10 0 59357 10800.00000 0 -2687928.834 24683877.571 5726341.269 10 0 59357 11700.00000 0 -2512265.894 23780233.562 8810006.310 10 0 59357 12600.00000 0 -2442013.204 22498858.211 11722042.195 10 0 59357 13500.00000 0 -2525497.720 20876428.776 14405802.799 10 0 59357 14400.00000 0 -2803167.516 18960642.033 16809143.530 10 0 59357 15300.00000 0 -3305658.016 16808309.595 18885435.363 10 0 59357 16200.00000 0 -4052283.514 14483090.018 20594465.766 10 0 59357 17100.00000 0 -5050017.602 12052953.891 21903209.573 10 0 59357 18000.00000 0 -6293004.959 9587488.860 22786455.837 10 0 59357 18900.00000 0 -7762624.398 7155157.326 23227279.904 10 0 59357 19800.00000 0 -9428099.784 4820620.796 23217353.196 10 0 59357 20700.00000 0 -11247632.526 2642241.340 22757086.305 10 0 59357 21600.00000 0 -13170007.880 669862.453 21855604.215 10 0 59357 22500.00000 0 -15136607.833 -1057040.494 20530555.392 10 0 59357 23400.00000 0 -17083746.771 -2510765.663 18807759.406 10 0 59357 24300.00000 0 -18945233.113 -3676290.112 16720700.472 10 0 59357 25200.00000 0 -20655050.988 -4551639.927 14309876.827 10 0 59357 26100.00000 0 -22150051.164 -5147711.883 11622018.363 10 0 59357 27000.00000 0 -23372540.191 -5487556.001 8709187.147 10 0 59357 27900.00000 0 -24272660.807 -5605150.438 5627777.442 10 0 59357 28800.00000 0 -24810465.176 -5543720.934 2437433.818 10 0 59357 29700.00000 0 -24957595.025 -5353675.814 -800092.666 10 0 59357 30600.00000 0 -24698498.816 -5090243.381 -4022128.980 10 0 59357 31500.00000 0 -24031135.009 -4810910.862 -7166283.177 10 0 59357 32400.00000 0 -22967131.587 -4572772.372 -10171643.448 10 0 59357 33300.00000 0 -21531394.348 -4429897.278 -12979950.657 10 0 59357 34200.00000 0 -19761179.230 -4430829.598 -15536722.074 10 0 59357 35100.00000 0 -17704666.064 -4616323.888 -17792305.016 10 0 59357 36000.00000 0 -15419091.745 -5017413.420 -19702840.283 10 0 59357 36900.00000 0 -12968519.194 -5653892.831 -21231116.802 10 0 59357 37800.00000 0 -10421333.602 -6533280.457 -22347300.912 10 0 59357 38700.00000 0 -7847568.897 -7650305.761 -23029525.898 10 0 59357 39600.00000 0 -5316174.724 -8986945.494 -23264329.789 10 0 59357 40500.00000 0 -2892336.943 -10513009.466 -23046932.194 10 0 59357 41400.00000 0 -634962.710 -12187253.767 -22381343.788 10 0 59357 42300.00000 0 1405565.100 -13958977.001 -21280305.075 10 0 59357 43200.00000 0 3189270.396 -15770034.555 -19765054.318 10 0 59357 44100.00000 0 4688024.375 -17557187.881 -17864927.735 10 0 59357 45000.00000 0 5886483.338 -19254691.005 -15616798.563 10 0 59357 45900.00000 0 6782484.263 -20797005.848 -13064364.865 10 0 59357 46800.00000 0 7386881.432 -22121531.795 -10257299.334 10 0 59357 47700.00000 0 7722831.209 -23171233.629 -7250277.513 10 0 59357 48600.00000 0 7824555.820 -23897055.850 -4101903.737 10 0 59357 49500.00000 0 7735639.455 -24260020.070 -873556.524 10 0 59357 50400.00000 0 7506930.297 -24232915.545 2371822.676 10 0 59357 51300.00000 0 7194139.207 -23801510.312 5570972.218 10 0 59357 52200.00000 0 6855238.912 -22965231.028 8661558.500 10 0 59357 53100.00000 0 6547776.010 -21737282.594 11583403.596 10 0 59357 54000.00000 0 6326211.696 -20144202.765 14279666.910 10 0 59357 54900.00000 0 6239405.412 -18224871.240 16697956.756 10 0 59357 55800.00000 0 6328349.079 -16029015.999 18791349.559 10 0 59357 56700.00000 0 6624248.259 -13615280.774 20519296.863 10 0 59357 57600.00000 0 7147031.306 -11048935.785 21848403.042 10 0 59357 58500.00000 0 7904348.913 -8399328.380 22753059.582 10 0 59357 59400.00000 0 8891105.367 -5737180.454 23215925.034 10 0 59357 60300.00000 0 10089540.313 -3131845.085 23228242.928 10 0 59357 61200.00000 0 11469856.565 -648635.930 22789993.131 10 0 59357 62100.00000 0 12991366.915 1653661.000 21909875.284 10 0 59357 63000.00000 0 14604111.421 3724991.668 20605125.937 10 0 59357 63900.00000 0 16250877.373 5525865.045 18901173.915 10 0 59357 64800.00000 0 17869537.731 7028737.287 16831141.151 10 0 59357 65700.00000 0 19395610.965 8218894.011 14435198.818 10 0 59357 66600.00000 0 20764936.098 9094796.247 11759791.071 10 0 59357 67500.00000 0 21916352.221 9667877.795 8856740.891 10 0 59357 68400.00000 0 22794271.496 9961804.126 5782254.608 10 0 59357 69300.00000 0 23351038.911 10011225.026 2595843.566 10 0 59357 70200.00000 0 23548980.818 9860074.017 -640817.132 10 0 59357 71100.00000 0 23362056.864 9559486.249 -3865071.648 10 0 59357 72000.00000 0 22777046.174 9165422.242 -7014486.049 10 0 59357 72900.00000 0 21794217.699 8736097.177 -10028048.086 10 0 59357 73800.00000 0 20427455.846 8329323.529 -12847341.541 10 0 59357 74700.00000 0 18703834.920 7999878.523 -15417672.877 10 0 59357 75600.00000 0 16662658.646 7797007.128 -17689128.819 10 0 59357 76500.00000 0 14354003.130 7762165.755 -19617544.700 10 0 59357 77400.00000 0 11836822.257 7927102.106 -21165364.863 10 0 59357 78300.00000 0 9176692.651 8312352.820 -22302378.473 10 0 59357 79200.00000 0 6443290.430 8926223.400 -23006316.185 10 0 59357 80100.00000 0 3707703.360 9764294.974 -23263295.594 10 0 59357 81000.00000 0 1039689.100 10809480.567 -23068106.088 10 0 59357 81900.00000 0 -1495007.197 12032630.701 -22424326.581 10 0 59357 82800.00000 0 -3837164.604 13393664.961 -21344272.628 10 0 59357 83700.00000 0 -5936322.912 14843183.951 -19848772.657 10 0 59357 84600.00000 0 -7752650.460 16324495.493 -17966776.274 10 0 59357 85500.00000 0 -9258364.835 17775970.896 -15734801.060 10 0 59358 0.00000 0 -10438646.692 19133632.645 -13196227.661 10 0 59358 900.00000 0 -11292007.984 20333864.248 -10400455.843 10 0 59358 1800.00000 0 -11830099.634 21316127.697 -7401938.731 10 0 59358 2700.00000 0 -12076966.193 22025571.672 -4259113.131 10 0 59358 3600.00000 0 -12067780.999 22415420.150 -1033248.491 10 0 59358 4500.00000 0 -11847115.630 22449037.835 2212762.093 10 0 59358 5400.00000 0 -11466819.069 22101584.214 5415643.638 10 0 59358 6300.00000 0 -10983598.219 21361184.967 8512987.861 10 0 59358 7200.00000 0 -10456404.378 20229570.614 11444482.454 10 0 59358 8100.00000 0 -9943738.438 18722155.215 14153095.633 10 0 59358 9000.00000 0 -9500990.632 16867552.072 16586191.779 10 0 59358 9900.00000 0 -9177928.743 14706547.527 18696555.741 10 0 59358 10800.00000 0 -9016441.697 12290576.895 20443305.870 10 0 59358 11700.00000 0 -9048633.985 9679767.338 21792678.517 10 0 59358 12600.00000 0 -9295350.874 6940630.533 22718669.702 10 0 59358 13500.00000 0 -9765195.664 4143501.906 23203522.882 10 0 59358 14400.00000 0 -10454079.180 1359833.242 23238054.967 10 0 59358 15300.00000 0 -11345319.142 -1340549.122 22821815.888 10 0 59358 16200.00000 0 -12410284.061 -3892107.614 21963080.212 10 0 59358 17100.00000 0 -13609553.713 -6236069.319 20678672.297 10 0 59358 18000.00000 0 -14894546.940 -8322613.540 18993629.367 10 0 59358 18900.00000 0 -16209548.428 -10112682.574 16940709.667 10 0 59358 19800.00000 0 -17494049.798 -11579342.908 14559755.362 10 0 59358 20700.00000 0 -18685307.564 -12708642.536 11896922.427 10 0 59358 21600.00000 0 -19721011.616 -13499930.925 9003791.900 10 0 59358 22500.00000 0 -20541953.430 -13965630.115 5936378.976 10 0 59358 23400.00000 0 -21094583.058 -14130467.916 2754058.316 10 0 59358 24300.00000 0 -21333348.498 -14030206.259 -481574.569 10 0 59358 25200.00000 0 -21222719.832 -13709918.492 -3707884.755 10 0 59358 26100.00000 0 -20738813.352 -13221888.020 -6862400.079 10 0 59358 27000.00000 0 -19870547.273 -12623216.340 -9884011.544 10 0 59358 27900.00000 0 -18620279.799 -11973240.651 -12714149.432 10 0 59358 28800.00000 0 -17003901.617 -11330869.169 -15297912.768 10 0 59358 29700.00000 0 -15050377.391 -10751945.863 -17585130.761 10 0 59358 30600.00000 0 -12800753.467 -10286755.257 -19531335.946 10 0 59358 31500.00000 0 -10306671.255 -9977772.317 -21098630.262 10 0 59358 32400.00000 0 -7628446.139 -9857752.451 -22256427.290 10 0 59358 33300.00000 0 -4832789.886 -9948242.730 -22982056.033 10 0 59358 34200.00000 0 -1990269.609 -10258578.092 -23261213.984 10 0 59358 35100.00000 0 827392.570 -10785406.178 -23088260.038 10 0 59358 36000.00000 0 3550067.981 -11512762.560 -22466340.522 10 0 59358 36900.00000 0 6111904.316 -12412694.978 -21407344.735 10 0 59358 37800.00000 0 8453831.594 -13446412.124 -19931689.547 10 0 59358 38700.00000 0 10525786.755 -14565910.185 -18067935.863 10 0 59358 39600.00000 0 12288563.601 -15716009.761 -15852243.193 10 0 59358 40500.00000 0 13715210.375 -16836717.970 -13327671.921 10 0 59358 41400.00000 0 14791916.026 -17865816.145 -10543346.126 10 0 59358 42300.00000 0 15518347.679 -18741563.303 -7553493.152 10 0 59358 43200.00000 0 15907425.287 -19405400.096 -4416378.855 10 0 59358 44100.00000 0 15984543.474 -19804537.463 -1193160.077 10 0 59358 45000.00000 0 15786274.409 -19894318.791 2053321.985 10 0 59358 45900.00000 0 15358608.018 -19640254.006 5259782.457 10 0 59358 46800.00000 0 14754805.756 -19019638.053 8363741.606 10 0 59358 47700.00000 0 14032960.840 -18022684.255 11304755.664 10 0 59358 48600.00000 0 13253370.232 -16653124.012 14025604.187 10 0 59358 49500.00000 0 12475831.461 -14928247.375 16473409.702 10 0 59358 50400.00000 0 11756980.084 -12878383.100 18600667.083 10 0 59358 51300.00000 0 11147781.250 -10545840.639 20366162.602 10 0 59358 52200.00000 0 10691281.584 -7983359.203 21735765.224 10 0 59358 53100.00000 0 10420715.891 -5252129.658 22683075.675 10 0 59358 54000.00000 0 10358047.558 -2419472.402 23189922.091 10 0 59358 54900.00000 0 10513002.765 443731.770 23246694.162 10 0 59358 55800.00000 0 10882637.566 3265751.070 22852510.973 10 0 59358 56700.00000 0 11451454.434 5976740.602 22015220.862 10 0 59358 57600.00000 0 12192061.941 8511396.329 20751234.639 10 0 59358 58500.00000 0 13066348.777 10811416.651 19085196.427 10 0 59358 59400.00000 0 14027122.135 12827671.501 17049499.147 10 0 59358 60300.00000 0 15020141.512 14521991.197 14683654.224 10 0 59358 61200.00000 0 15986462.764 15868502.880 12033527.607 10 0 59358 62100.00000 0 16864994.616 16854461.160 9150456.428 10 0 59358 63000.00000 0 17595161.083 17480540.229 6090262.658 10 0 59358 63900.00000 0 18119558.887 17760576.735 2912182.067 10 0 59358 64800.00000 0 18386499.064 17720775.290 -322271.723 10 0 59358 65700.00000 0 18352326.607 17398410.494 -3550487.057 10 0 59358 66600.00000 0 17983420.958 16840080.083 -6709955.867 10 0 59358 67500.00000 0 17257793.216 16099582.377 -9739474.675 10 0 59358 68400.00000 0 16166212.360 15235506.726 -12580322.374 10 0 59358 69300.00000 0 14712812.176 14308637.671 -15177392.497 10 0 59358 70200.00000 0 12915151.900 13379281.312 -17480258.482 10 0 59358 71100.00000 0 10803726.078 12504625.772 -19444151.639 10 0 59358 72000.00000 0 8420941.983 11736246.420 -21030832.922 10 0 59358 72900.00000 0 5819604.952 11117860.659 -22209341.633 10 0 59358 73800.00000 0 3060972.385 10683426.933 -22956606.315 10 0 59358 74700.00000 0 212455.439 10455668.513 -23257905.451 10 0 59358 75600.00000 0 -2654937.948 10445085.062 -23107168.368 10 0 59358 76500.00000 0 -5469313.776 10649494.810 -22507109.516 10 0 59358 77400.00000 0 -8160644.701 11054127.994 -21469192.357 10 0 59358 78300.00000 0 -10663450.763 11632269.139 -20013422.263 10 0 59358 79200.00000 0 -12919296.609 12346422.468 -18167971.102 10 0 59358 80100.00000 0 -14879000.749 13149952.434 -15968639.574 10 0 59358 81000.00000 0 -16504464.081 13989130.842 -13458166.722 10 0 59358 81900.00000 0 -17770040.636 14805504.301 -10685399.337 10 0 59358 82800.00000 0 -18663392.486 15538481.541 -7704337.231 10 0 59358 83700.00000 0 -19185792.723 16128030.227 -4573073.231 10 0 59358 84600.00000 0 -19351863.900 16517367.752 -1352649.241 10 0 59358 85500.00000 0 -19188763.545 16655530.376 1894147.986 99